Time,TemperatureF,DewpointF,PressureIn,WindDirection,WindDirectionDegrees,WindSpeedMPH,WindSpeedGustMPH,Humidity,HourlyPrecipIn,Conditions,Clouds,dailyrainin,SolarRadiationWatts/m^2,SoftwareType,DateUTC
2013-04-25 00:03:00,58.4,45.0,29.82,ESE,107,0.0,7.0,61,0.00,,,0.00,0,WeatherTracker,2013-04-25 07:03:00,
2013-04-25 00:08:00,58.1,45.1,29.82,East,85,0.0,1.0,62,0.00,,,0.00,0,WeatherTracker,2013-04-25 07:08:00,
2013-04-25 00:13:00,58.1,45.1,29.82,East,80,0.0,1.0,62,0.00,,,0.00,0,WeatherTracker,2013-04-25 07:13:00,
2013-04-25 00:18:00,58.0,45.5,29.82,ENE,73,0.0,2.0,63,0.00,,,0.00,0,WeatherTracker,2013-04-25 07:18:00,
2013-04-25 00:23:00,57.7,45.2,29.83,ENE,73,0.0,4.0,63,0.00,,,0.00,0,WeatherTracker,2013-04-25 07:23:00,
2013-04-25 00:28:00,57.3,45.2,29.83,ENE,73,0.0,4.0,64,0.00,,,0.00,0,WeatherTracker,2013-04-25 07:28:00,
2013-04-25 00:33:00,57.1,45.0,29.83,ENE,72,0.0,3.0,64,0.00,,,0.00,0,WeatherTracker,2013-04-25 07:33:00,
2013-04-25 00:38:00,56.9,44.8,29.83,ENE,72,0.0,4.0,64,0.00,,,0.00,0,WeatherTracker,2013-04-25 07:38:00,
2013-04-25 00:43:00,56.7,45.1,29.83,ENE,70,0.0,4.0,65,0.00,,,0.00,0,WeatherTracker,2013-04-25 07:43:00,
2013-04-25 00:48:00,56.5,44.9,29.83,ENE,69,0.0,1.0,65,0.00,,,0.00,0,WeatherTracker,2013-04-25 07:48:00,
2013-04-25 00:53:00,56.4,44.8,29.83,ENE,69,0.0,1.0,65,0.00,,,0.00,0,WeatherTracker,2013-04-25 07:53:00,
2013-04-25 00:58:00,56.4,44.8,29.84,ENE,69,0.0,0.0,65,0.00,,,0.00,0,WeatherTracker,2013-04-25 07:58:00,
2013-04-25 01:03:00,56.4,44.8,29.84,ENE,69,0.0,0.0,65,0.00,,,0.00,0,WeatherTracker,2013-04-25 08:03:00,
2013-04-25 01:08:00,56.4,44.8,29.83,ENE,69,0.0,0.0,65,0.00,,,0.00,0,WeatherTracker,2013-04-25 08:08:00,
2013-04-25 01:14:00,56.4,44.8,29.84,ENE,69,0.0,0.0,65,0.00,,,0.00,0,WeatherTracker,2013-04-25 08:14:00,
2013-04-25 01:19:00,56.3,45.1,29.84,ENE,69,0.0,0.0,66,0.00,,,0.00,0,WeatherTracker,2013-04-25 08:19:00,
2013-04-25 01:24:00,56.4,45.2,29.84,ENE,69,0.0,0.0,66,0.00,,,0.00,0,WeatherTracker,2013-04-25 08:24:00,
2013-04-25 01:29:00,56.2,44.6,29.84,ENE,69,0.0,0.0,65,0.00,,,0.00,0,WeatherTracker,2013-04-25 08:29:00,
2013-04-25 01:34:00,56.1,44.5,29.84,ENE,69,0.0,0.0,65,0.00,,,0.00,0,WeatherTracker,2013-04-25 08:34:00,
2013-04-25 01:39:00,56.0,44.4,29.84,ENE,69,0.0,0.0,65,0.00,,,0.00,0,WeatherTracker,2013-04-25 08:39:00,
2013-04-25 01:44:00,55.9,44.3,29.84,ENE,69,0.0,0.0,65,0.00,,,0.00,0,WeatherTracker,2013-04-25 08:44:00,
2013-04-25 01:49:00,55.8,44.2,29.85,ENE,69,0.0,0.0,65,0.00,,,0.00,0,WeatherTracker,2013-04-25 08:49:00,
2013-04-25 01:54:00,55.7,44.1,29.85,ENE,69,0.0,0.0,65,0.00,,,0.00,0,WeatherTracker,2013-04-25 08:54:00,
2013-04-25 01:59:00,55.5,44.3,29.85,ENE,69,0.0,0.0,66,0.00,,,0.00,0,WeatherTracker,2013-04-25 08:59:00,
2013-04-25 02:04:00,55.3,44.1,29.85,ENE,69,0.0,0.0,66,0.00,,,0.00,0,WeatherTracker,2013-04-25 09:04:00,
2013-04-25 02:09:00,55.1,44.3,29.85,ENE,69,0.0,0.0,67,0.00,,,0.00,0,WeatherTracker,2013-04-25 09:09:00,
2013-04-25 02:14:00,54.9,44.2,29.85,ENE,69,0.0,0.0,67,0.00,,,0.00,0,WeatherTracker,2013-04-25 09:14:00,
2013-04-25 02:19:00,54.6,43.9,29.85,ENE,69,0.0,0.0,67,0.00,,,0.00,0,WeatherTracker,2013-04-25 09:19:00,
2013-04-25 02:24:00,54.5,43.8,29.85,ENE,69,0.0,0.0,67,0.00,,,0.00,0,WeatherTracker,2013-04-25 09:24:00,
2013-04-25 02:29:00,54.3,43.6,29.85,ENE,69,0.0,0.0,67,0.00,,,0.00,0,WeatherTracker,2013-04-25 09:29:00,
2013-04-25 02:34:00,54.2,43.9,29.85,ENE,69,0.0,0.0,68,0.00,,,0.00,0,WeatherTracker,2013-04-25 09:34:00,
2013-04-25 02:39:00,54.2,43.9,29.86,ENE,69,0.0,0.0,68,0.00,,,0.00,0,WeatherTracker,2013-04-25 09:39:00,
2013-04-25 02:44:00,54.2,43.9,29.86,ENE,69,0.0,0.0,68,0.00,,,0.00,0,WeatherTracker,2013-04-25 09:44:00,
2013-04-25 02:49:00,54.2,43.9,29.86,ENE,69,0.0,0.0,68,0.00,,,0.00,0,WeatherTracker,2013-04-25 09:49:00,
2013-04-25 02:55:00,54.1,43.8,29.86,ENE,69,0.0,0.0,68,0.00,,,0.00,0,WeatherTracker,2013-04-25 09:55:00,
2013-04-25 03:00:00,53.9,44.0,29.86,NE,55,0.0,0.0,69,0.00,,,0.00,0,WeatherTracker,2013-04-25 10:00:00,
2013-04-25 03:05:00,53.6,43.7,29.86,NW,315,0.0,5.0,69,0.00,,,0.00,0,WeatherTracker,2013-04-25 10:05:00,
2013-04-25 03:10:00,53.4,43.9,29.86,NW,312,4.0,5.0,70,0.00,,,0.00,0,WeatherTracker,2013-04-25 10:10:00,
2013-04-25 03:15:00,53.1,43.9,29.86,NW,307,0.0,4.0,71,0.00,,,0.00,0,WeatherTracker,2013-04-25 10:15:00,
2013-04-25 03:20:00,52.9,43.8,29.87,NW,306,0.0,4.0,71,0.00,,,0.00,0,WeatherTracker,2013-04-25 10:20:00,
2013-04-25 03:25:00,52.8,44.0,29.87,WNW,302,6.0,6.0,72,0.00,,,0.00,0,WeatherTracker,2013-04-25 10:25:00,
2013-04-25 03:30:00,52.6,43.8,29.87,NW,315,0.0,6.0,72,0.00,,,0.00,0,WeatherTracker,2013-04-25 10:30:00,
2013-04-25 03:35:00,52.5,44.1,29.87,NW,315,0.0,6.0,73,0.00,,,0.00,0,WeatherTracker,2013-04-25 10:35:00,
2013-04-25 03:40:00,52.4,44.0,29.88,NW,311,3.0,6.0,73,0.00,,,0.00,0,WeatherTracker,2013-04-25 10:40:00,
2013-04-25 03:45:00,52.3,43.9,29.88,NW,311,0.0,5.0,73,0.00,,,0.00,0,WeatherTracker,2013-04-25 10:45:00,
2013-04-25 03:50:00,52.3,43.9,29.88,NW,311,0.0,5.0,73,0.00,,,0.00,0,WeatherTracker,2013-04-25 10:50:00,
2013-04-25 03:56:00,52.3,43.9,29.88,NW,311,0.0,3.0,73,0.00,,,0.00,0,WeatherTracker,2013-04-25 10:56:00,
2013-04-25 04:01:00,52.3,44.3,29.89,NW,310,4.0,4.0,74,0.00,,,0.00,0,WeatherTracker,2013-04-25 11:01:00,
2013-04-25 04:06:00,52.2,44.2,29.89,NW,311,2.0,7.0,74,0.00,,,0.00,0,WeatherTracker,2013-04-25 11:06:00,
2013-04-25 04:11:00,52.1,44.4,29.89,NW,313,4.0,7.0,75,0.00,,,0.00,0,WeatherTracker,2013-04-25 11:11:00,
2013-04-25 04:16:00,52.1,44.4,29.89,NW,313,0.0,7.0,75,0.00,,,0.00,0,WeatherTracker,2013-04-25 11:16:00,
2013-04-25 04:21:00,52.0,44.3,29.89,NW,314,1.0,6.0,75,0.00,,,0.00,0,WeatherTracker,2013-04-25 11:21:00,
2013-04-25 04:26:00,52.0,44.3,29.89,NW,313,0.0,5.0,75,0.00,,,0.00,0,WeatherTracker,2013-04-25 11:26:00,
2013-04-25 04:31:00,52.0,44.7,29.89,NW,317,0.0,5.0,76,0.00,,,0.00,0,WeatherTracker,2013-04-25 11:31:00,
2013-04-25 04:36:00,51.9,44.6,29.89,NW,317,0.0,4.0,76,0.00,,,0.00,0,WeatherTracker,2013-04-25 11:36:00,
2013-04-25 04:41:00,51.8,44.5,29.90,NW,317,0.0,3.0,76,0.00,,,0.00,0,WeatherTracker,2013-04-25 11:41:00,
2013-04-25 04:46:00,51.7,44.4,29.90,NW,317,0.0,0.0,76,0.00,,,0.00,0,WeatherTracker,2013-04-25 11:46:00,
2013-04-25 04:51:00,51.6,44.3,29.90,NW,317,0.0,0.0,76,0.00,,,0.00,0,WeatherTracker,2013-04-25 11:51:00,
2013-04-25 04:56:00,51.5,44.5,29.90,NW,317,0.0,0.0,77,0.00,,,0.00,0,WeatherTracker,2013-04-25 11:56:00,
2013-04-25 05:01:00,51.4,44.4,29.89,NW,317,0.0,0.0,77,0.00,,,0.00,0,WeatherTracker,2013-04-25 12:01:00,
2013-04-25 05:06:00,51.3,44.3,29.90,NW,317,0.0,0.0,77,0.00,,,0.00,0,WeatherTracker,2013-04-25 12:06:00,
2013-04-25 05:11:00,51.3,44.3,29.90,NW,317,0.0,0.0,77,0.00,,,0.00,0,WeatherTracker,2013-04-25 12:11:00,
2013-04-25 05:17:00,51.2,44.2,29.90,NW,317,0.0,0.0,77,0.00,,,0.00,0,WeatherTracker,2013-04-25 12:17:00,
2013-04-25 05:22:00,51.1,44.1,29.90,NW,317,0.0,0.0,77,0.00,,,0.00,0,WeatherTracker,2013-04-25 12:22:00,
2013-04-25 05:27:00,50.9,43.9,29.90,NW,308,0.0,0.0,77,0.00,,,0.00,0,WeatherTracker,2013-04-25 12:27:00,
2013-04-25 05:32:00,50.8,43.9,29.90,NW,308,0.0,4.0,77,0.00,,,0.00,0,WeatherTracker,2013-04-25 12:32:00,
2013-04-25 05:37:00,50.8,43.9,29.90,NW,308,0.0,4.0,77,0.00,,,0.00,0,WeatherTracker,2013-04-25 12:37:00,
2013-04-25 05:42:00,50.7,43.8,29.90,NW,308,0.0,1.0,77,0.00,,,0.00,0,WeatherTracker,2013-04-25 12:42:00,
2013-04-25 05:47:00,50.6,44.0,29.90,NW,307,0.0,0.0,78,0.00,,,0.00,0,WeatherTracker,2013-04-25 12:47:00,
2013-04-25 05:52:00,50.5,43.9,29.91,NW,306,0.0,0.0,78,0.00,,,0.00,0,WeatherTracker,2013-04-25 12:52:00,
2013-04-25 05:57:00,50.3,43.7,29.91,NW,306,0.0,5.0,78,0.00,,,0.00,0,WeatherTracker,2013-04-25 12:57:00,
2013-04-25 06:02:00,50.1,43.5,29.91,NW,308,0.0,5.0,78,0.00,,,0.00,0,WeatherTracker,2013-04-25 13:02:00,
2013-04-25 06:07:00,50.1,43.8,29.91,NW,308,0.0,5.0,79,0.00,,,0.00,0,WeatherTracker,2013-04-25 13:07:00,
2013-04-25 06:12:00,50.1,43.8,29.91,NW,308,0.0,2.0,79,0.00,,,0.00,0,WeatherTracker,2013-04-25 13:12:00,
2013-04-25 06:17:00,50.1,43.8,29.92,NW,308,0.0,4.0,79,0.00,,,0.00,5,WeatherTracker,2013-04-25 13:17:00,
2013-04-25 06:22:00,50.1,43.8,29.93,NW,309,0.0,4.0,79,0.00,,,0.00,7,WeatherTracker,2013-04-25 13:22:00,
2013-04-25 06:27:00,50.1,43.8,29.92,NW,309,0.0,2.0,79,0.00,,,0.00,12,WeatherTracker,2013-04-25 13:27:00,
2013-04-25 06:32:00,50.0,44.1,29.93,NW,309,0.0,0.0,80,0.00,,,0.00,16,WeatherTracker,2013-04-25 13:32:00,
2013-04-25 06:37:00,50.0,44.1,29.93,NW,309,0.0,0.0,80,0.00,,,0.00,21,WeatherTracker,2013-04-25 13:37:00,
2013-04-25 06:42:00,50.0,44.1,29.94,NW,309,0.0,0.0,80,0.00,,,0.00,26,WeatherTracker,2013-04-25 13:42:00,
2013-04-25 06:47:00,50.1,44.2,29.94,NW,309,0.0,0.0,80,0.00,,,0.00,33,WeatherTracker,2013-04-25 13:47:00,
2013-04-25 06:52:00,50.2,44.3,29.94,NW,309,0.0,0.0,80,0.00,,,0.00,44,WeatherTracker,2013-04-25 13:52:00,
2013-04-25 06:57:00,50.4,44.1,29.94,NW,309,0.0,0.0,79,0.00,,,0.00,56,WeatherTracker,2013-04-25 13:57:00,
2013-04-25 07:02:00,50.7,44.4,29.95,NW,309,0.0,0.0,79,0.00,,,0.00,70,WeatherTracker,2013-04-25 14:02:00,
2013-04-25 07:07:00,51.1,44.1,29.95,NW,309,0.0,0.0,77,0.00,,,0.00,81,WeatherTracker,2013-04-25 14:07:00,
2013-04-25 07:12:00,51.5,44.5,29.95,NW,309,0.0,0.0,77,0.00,,,0.00,93,WeatherTracker,2013-04-25 14:12:00,
2013-04-25 07:17:00,52.1,45.1,29.95,NW,309,0.0,0.0,77,0.00,,,0.00,105,WeatherTracker,2013-04-25 14:17:00,
2013-04-25 07:22:00,52.5,45.5,29.95,NW,309,0.0,0.0,77,0.00,,,0.00,123,WeatherTracker,2013-04-25 14:22:00,
2013-04-25 07:28:00,53.0,45.6,29.95,NW,311,4.0,0.0,76,0.00,,,0.00,142,WeatherTracker,2013-04-25 14:28:00,
2013-04-25 07:33:00,53.2,45.5,29.95,NW,319,4.0,5.0,75,0.00,,,0.00,160,WeatherTracker,2013-04-25 14:33:00,
2013-04-25 07:38:00,53.1,45.4,29.96,NW,319,0.0,5.0,75,0.00,,,0.00,179,WeatherTracker,2013-04-25 14:38:00,
2013-04-25 07:43:00,53.5,45.8,29.96,NW,319,0.0,4.0,75,0.00,,,0.00,197,WeatherTracker,2013-04-25 14:43:00,
2013-04-25 07:48:00,54.0,45.9,29.96,NW,319,0.0,0.0,74,0.00,,,0.00,213,WeatherTracker,2013-04-25 14:48:00,
2013-04-25 07:53:00,54.4,45.9,29.96,NW,319,0.0,0.0,73,0.00,,,0.00,230,WeatherTracker,2013-04-25 14:53:00,
2013-04-25 07:58:00,55.1,45.9,29.96,NW,319,0.0,0.0,71,0.00,,,0.00,244,WeatherTracker,2013-04-25 14:58:00,
2013-04-25 08:03:00,55.4,45.8,29.97,NW,319,0.0,0.0,70,0.00,,,0.00,260,WeatherTracker,2013-04-25 15:03:00,
2013-04-25 08:08:00,55.5,45.9,29.96,NW,319,0.0,0.0,70,0.00,,,0.00,276,WeatherTracker,2013-04-25 15:08:00,
2013-04-25 08:13:00,55.3,45.7,29.97,NW,319,0.0,0.0,70,0.00,,,0.00,294,WeatherTracker,2013-04-25 15:13:00,
2013-04-25 08:18:00,55.7,45.7,29.97,NW,319,0.0,0.0,69,0.00,,,0.00,311,WeatherTracker,2013-04-25 15:18:00,
2013-04-25 08:23:00,56.1,45.7,29.97,NW,319,0.0,0.0,68,0.00,,,0.00,327,WeatherTracker,2013-04-25 15:23:00,
2013-04-25 08:28:00,56.1,46.1,29.97,NW,319,0.0,0.0,69,0.00,,,0.00,345,WeatherTracker,2013-04-25 15:28:00,
2013-04-25 08:33:00,56.1,46.1,29.98,NW,319,0.0,0.0,69,0.00,,,0.00,364,WeatherTracker,2013-04-25 15:33:00,
2013-04-25 08:38:00,56.6,46.5,29.98,NW,319,0.0,0.0,69,0.00,,,0.00,381,WeatherTracker,2013-04-25 15:38:00,
2013-04-25 08:43:00,57.0,46.2,29.98,NW,319,0.0,0.0,67,0.00,,,0.00,399,WeatherTracker,2013-04-25 15:43:00,
2013-04-25 08:49:00,57.2,45.9,29.98,NW,318,0.0,0.0,66,0.00,,,0.00,413,WeatherTracker,2013-04-25 15:49:00,
2013-04-25 08:54:00,58.1,46.8,29.98,NW,319,0.0,0.0,66,0.00,,,0.00,432,WeatherTracker,2013-04-25 15:54:00,
2013-04-25 08:59:00,59.1,46.9,29.99,NW,320,0.0,0.0,64,0.00,,,0.00,448,WeatherTracker,2013-04-25 15:59:00,
2013-04-25 09:04:00,59.5,46.5,29.99,NW,320,0.0,0.0,62,0.00,,,0.00,462,WeatherTracker,2013-04-25 16:04:00,
2013-04-25 09:09:00,59.9,47.3,29.99,NW,320,0.0,0.0,63,0.00,,,0.00,478,WeatherTracker,2013-04-25 16:09:00,
2013-04-25 09:14:00,60.1,47.5,29.99,NW,321,0.0,0.0,63,0.00,,,0.00,496,WeatherTracker,2013-04-25 16:14:00,
2013-04-25 09:19:00,60.9,47.8,29.99,NW,322,0.0,0.0,62,0.00,,,0.00,512,WeatherTracker,2013-04-25 16:19:00,
2013-04-25 09:24:00,61.8,48.2,30.00,NNW,344,0.0,0.0,61,0.00,,,0.00,527,WeatherTracker,2013-04-25 16:24:00,
2013-04-25 09:29:00,62.9,48.8,30.00,NNE,32,0.0,0.0,60,0.00,,,0.00,545,WeatherTracker,2013-04-25 16:29:00,
2013-04-25 09:34:00,63.5,48.0,30.00,ENE,74,0.0,3.0,57,0.00,,,0.00,561,WeatherTracker,2013-04-25 16:34:00,
2013-04-25 09:39:00,64.0,48.5,30.00,ENE,73,2.0,4.0,57,0.00,,,0.00,575,WeatherTracker,2013-04-25 16:39:00,
2013-04-25 09:44:00,64.7,48.6,30.00,ENE,73,0.0,4.0,56,0.00,,,0.00,591,WeatherTracker,2013-04-25 16:44:00,
2013-04-25 09:49:00,65.3,48.7,30.00,ENE,69,2.0,4.0,55,0.00,,,0.00,606,WeatherTracker,2013-04-25 16:49:00,
2013-04-25 09:54:00,65.8,48.7,30.00,ENE,71,0.0,4.0,54,0.00,,,0.00,619,WeatherTracker,2013-04-25 16:54:00,
2013-04-25 09:59:00,65.8,48.7,30.01,ENE,71,0.0,4.0,54,0.00,,,0.00,633,WeatherTracker,2013-04-25 16:59:00,
2013-04-25 10:04:00,65.3,48.7,30.01,NNE,17,5.0,5.0,55,0.00,,,0.00,649,WeatherTracker,2013-04-25 17:04:00,
2013-04-25 10:09:00,65.2,48.6,30.01,North,360,1.0,5.0,55,0.00,,,0.00,663,WeatherTracker,2013-04-25 17:09:00,
2013-04-25 10:14:00,65.5,48.4,30.01,ENE,70,0.0,5.0,54,0.00,,,0.00,677,WeatherTracker,2013-04-25 17:14:00,
2013-04-25 10:19:00,65.5,48.4,30.01,East,86,0.0,5.0,54,0.00,,,0.00,691,WeatherTracker,2013-04-25 17:19:00,
2013-04-25 10:24:00,66.3,49.1,30.01,ENE,69,1.0,1.0,54,0.00,,,0.00,701,WeatherTracker,2013-04-25 17:24:00,
2013-04-25 10:30:00,67.2,49.5,30.01,ENE,69,0.0,4.0,53,0.00,,,0.00,715,WeatherTracker,2013-04-25 17:30:00,
2013-04-25 10:35:00,67.9,49.1,30.01,ENE,69,2.0,4.0,51,0.00,,,0.00,728,WeatherTracker,2013-04-25 17:35:00,
2013-04-25 10:40:00,68.6,49.7,30.01,ENE,71,0.0,4.0,51,0.00,,,0.00,740,WeatherTracker,2013-04-25 17:40:00,
2013-04-25 10:45:00,69.2,49.8,30.01,East,98,2.0,6.0,50,0.00,,,0.00,754,WeatherTracker,2013-04-25 17:45:00,
2013-04-25 10:50:00,69.5,49.5,30.00,East,99,0.0,6.0,49,0.00,,,0.00,766,WeatherTracker,2013-04-25 17:50:00,
2013-04-25 10:55:00,69.4,49.9,30.00,ESE,108,5.0,6.0,50,0.00,,,0.00,775,WeatherTracker,2013-04-25 17:55:00,
2013-04-25 11:00:00,69.2,49.2,30.01,ESE,111,0.0,7.0,49,0.00,,,0.00,789,WeatherTracker,2013-04-25 18:00:00,
2013-04-25 11:05:00,69.3,49.9,30.01,ESE,115,0.0,7.0,50,0.00,,,0.00,798,WeatherTracker,2013-04-25 18:05:00,
2013-04-25 11:10:00,69.7,49.1,30.01,ESE,121,0.0,6.0,48,0.00,,,0.00,807,WeatherTracker,2013-04-25 18:10:00,
2013-04-25 11:15:00,70.0,49.4,30.01,ESE,121,0.0,1.0,48,0.00,,,0.00,810,WeatherTracker,2013-04-25 18:15:00,
2013-04-25 11:20:00,70.0,48.8,30.01,SW,217,0.0,6.0,47,0.00,,,0.00,824,WeatherTracker,2013-04-25 18:20:00,
2013-04-25 11:25:00,70.1,49.5,30.00,SW,217,0.0,6.0,48,0.00,,,0.00,831,WeatherTracker,2013-04-25 18:25:00,
2013-04-25 11:30:00,70.5,50.4,30.00,SE,138,0.0,8.0,49,0.00,,,0.00,842,WeatherTracker,2013-04-25 18:30:00,
2013-04-25 11:35:00,71.1,49.3,30.01,SE,138,0.0,8.0,46,0.00,,,0.00,853,WeatherTracker,2013-04-25 18:35:00,
2013-04-25 11:41:00,71.8,49.9,30.01,SE,140,0.0,8.0,46,0.00,,,0.00,854,WeatherTracker,2013-04-25 18:41:00,
2013-04-25 11:46:00,72.1,49.6,30.01,WSW,249,2.0,2.0,45,0.00,,,0.00,868,WeatherTracker,2013-04-25 18:46:00,
2013-04-25 11:51:00,72.3,49.2,30.01,WSW,247,4.0,5.0,44,0.00,,,0.00,874,WeatherTracker,2013-04-25 18:51:00,
2013-04-25 11:56:00,72.5,49.3,30.00,WSW,246,0.0,5.0,44,0.00,,,0.00,879,WeatherTracker,2013-04-25 18:56:00,
2013-04-25 12:01:00,72.6,48.8,30.00,SW,227,0.0,5.0,43,0.00,,,0.00,886,WeatherTracker,2013-04-25 19:01:00,
2013-04-25 12:06:00,73.2,48.7,30.00,SW,217,0.0,7.0,42,0.00,,,0.00,893,WeatherTracker,2013-04-25 19:06:00,
2013-04-25 12:11:00,73.7,49.2,30.00,ESE,120,0.0,8.0,42,0.00,,,0.00,904,WeatherTracker,2013-04-25 19:11:00,
2013-04-25 12:16:00,73.9,49.3,30.00,NW,313,6.0,8.0,42,0.00,,,0.00,904,WeatherTracker,2013-04-25 19:16:00,
2013-04-25 12:21:00,74.4,48.5,30.00,NW,308,0.0,6.0,40,0.00,,,0.00,911,WeatherTracker,2013-04-25 19:21:00,
2013-04-25 12:26:00,74.6,48.7,30.00,WNW,284,0.0,6.0,40,0.00,,,0.00,911,WeatherTracker,2013-04-25 19:26:00,
2013-04-25 12:31:00,74.7,48.8,30.00,West,277,0.0,6.0,40,0.00,,,0.00,916,WeatherTracker,2013-04-25 19:31:00,
2013-04-25 12:36:00,74.8,48.8,30.00,West,277,0.0,5.0,40,0.00,,,0.00,918,WeatherTracker,2013-04-25 19:36:00,
2013-04-25 12:41:00,75.5,48.8,30.00,West,266,0.0,6.0,39,0.00,,,0.00,921,WeatherTracker,2013-04-25 19:41:00,
2013-04-25 12:46:00,76.1,47.9,30.00,WSW,244,0.0,6.0,37,0.00,,,0.00,925,WeatherTracker,2013-04-25 19:46:00,
2013-04-25 12:51:00,76.4,48.9,30.00,SSE,159,0.0,8.0,38,0.00,,,0.00,926,WeatherTracker,2013-04-25 19:51:00,
2013-04-25 12:56:00,76.7,49.2,30.00,SSE,150,0.0,8.0,38,0.00,,,0.00,930,WeatherTracker,2013-04-25 19:56:00,
2013-04-25 13:01:00,77.1,49.5,29.99,SSE,164,0.0,8.0,38,0.00,,,0.00,930,WeatherTracker,2013-04-25 20:01:00,
2013-04-25 13:06:00,77.6,50.7,29.99,East,92,6.0,7.0,39,0.00,,,0.00,932,WeatherTracker,2013-04-25 20:06:00,
2013-04-25 13:11:00,77.8,49.4,29.99,SSE,167,0.0,8.0,37,0.00,,,0.00,932,WeatherTracker,2013-04-25 20:11:00,
2013-04-25 13:16:00,78.2,49.8,29.99,SSE,148,7.0,8.0,37,0.00,,,0.00,930,WeatherTracker,2013-04-25 20:16:00,
2013-04-25 13:21:00,78.3,49.1,29.99,SSW,200,0.0,8.0,36,0.00,,,0.00,932,WeatherTracker,2013-04-25 20:21:00,
2013-04-25 13:27:00,78.3,48.4,29.99,SSW,198,0.0,8.0,35,0.00,,,0.00,932,WeatherTracker,2013-04-25 20:27:00,
2013-04-25 13:32:00,78.7,49.5,29.99,ESE,111,8.0,8.0,36,0.00,,,0.00,928,WeatherTracker,2013-04-25 20:32:00,
2013-04-25 13:37:00,79.2,48.4,29.99,ESE,107,0.0,9.0,34,0.00,,,0.00,926,WeatherTracker,2013-04-25 20:37:00,
2013-04-25 13:42:00,79.7,48.8,29.99,SSE,148,4.0,9.0,34,0.00,,,0.00,925,WeatherTracker,2013-04-25 20:42:00,
2013-04-25 13:47:00,80.2,49.3,29.99,SSE,148,0.0,6.0,34,0.00,,,0.00,916,WeatherTracker,2013-04-25 20:47:00,
2013-04-25 13:52:00,80.9,49.9,29.99,ENE,59,0.0,6.0,34,0.00,,,0.00,919,WeatherTracker,2013-04-25 20:52:00,
2013-04-25 13:57:00,81.4,48.7,29.99,West,276,0.0,6.0,32,0.00,,,0.00,921,WeatherTracker,2013-04-25 20:57:00,
2013-04-25 14:02:00,81.8,49.0,29.99,SSW,196,0.0,6.0,32,0.00,,,0.00,914,WeatherTracker,2013-04-25 21:02:00,
2013-04-25 14:07:00,82.1,48.4,29.99,South,191,0.0,4.0,31,0.00,,,0.00,911,WeatherTracker,2013-04-25 21:07:00,
2013-04-25 14:12:00,82.3,46.8,29.99,South,183,6.0,6.0,29,0.00,,,0.00,907,WeatherTracker,2013-04-25 21:12:00,
2013-04-25 14:17:00,82.0,46.6,29.99,SSW,196,0.0,7.0,29,0.00,,,0.00,902,WeatherTracker,2013-04-25 21:17:00,
2013-04-25 14:22:00,82.2,45.8,29.99,South,171,7.0,7.0,28,0.00,,,0.00,896,WeatherTracker,2013-04-25 21:22:00,
2013-04-25 14:27:00,82.3,44.9,29.98,SSW,198,5.0,10.0,27,0.00,,,0.00,891,WeatherTracker,2013-04-25 21:27:00,
2013-04-25 14:32:00,82.3,44.9,29.98,SSW,200,0.0,10.0,27,0.00,,,0.00,882,WeatherTracker,2013-04-25 21:32:00,
2013-04-25 14:37:00,82.6,44.2,29.98,SSW,209,0.0,8.0,26,0.00,,,0.00,882,WeatherTracker,2013-04-25 21:37:00,
2013-04-25 14:42:00,83.2,44.7,29.98,SSW,213,0.0,5.0,26,0.00,,,0.00,870,WeatherTracker,2013-04-25 21:42:00,
2013-04-25 14:47:00,83.9,47.3,29.98,SW,224,4.0,4.0,28,0.00,,,0.00,860,WeatherTracker,2013-04-25 21:47:00,
2013-04-25 14:52:00,84.4,46.7,29.98,SSW,197,0.0,8.0,27,0.00,,,0.00,853,WeatherTracker,2013-04-25 21:52:00,
2013-04-25 14:57:00,84.9,45.1,29.98,East,93,5.0,9.0,25,0.00,,,0.00,846,WeatherTracker,2013-04-25 21:57:00,
2013-04-25 15:02:00,84.7,46.0,29.98,ESE,115,0.0,9.0,26,0.00,,,0.00,835,WeatherTracker,2013-04-25 22:02:00,
2013-04-25 15:07:00,84.9,46.2,29.97,ESE,110,0.0,7.0,26,0.00,,,0.00,826,WeatherTracker,2013-04-25 22:07:00,
2013-04-25 15:13:00,85.2,47.4,29.97,East,101,4.0,7.0,27,0.00,,,0.00,814,WeatherTracker,2013-04-25 22:13:00,
2013-04-25 15:18:00,85.6,49.7,29.97,ESE,106,2.0,8.0,29,0.00,,,0.00,805,WeatherTracker,2013-04-25 22:18:00,
2013-04-25 15:23:00,86.2,47.3,29.97,SW,223,0.0,8.0,26,0.00,,,0.00,800,WeatherTracker,2013-04-25 22:23:00,
2013-04-25 15:28:00,86.5,48.5,29.97,NW,306,0.0,6.0,27,0.00,,,0.00,786,WeatherTracker,2013-04-25 22:28:00,
2013-04-25 15:33:00,86.7,47.7,29.97,WSW,244,0.0,5.0,26,0.00,,,0.00,775,WeatherTracker,2013-04-25 22:33:00,
2013-04-25 15:38:00,86.8,44.5,29.97,WSW,256,0.0,4.0,23,0.00,,,0.00,763,WeatherTracker,2013-04-25 22:38:00,
2013-04-25 15:43:00,87.1,44.8,29.96,WSW,257,0.0,5.0,23,0.00,,,0.00,745,WeatherTracker,2013-04-25 22:43:00,
2013-04-25 15:48:00,87.4,46.1,29.96,ESE,118,2.0,5.0,24,0.00,,,0.00,735,WeatherTracker,2013-04-25 22:48:00,
2013-04-25 15:53:00,87.4,46.1,29.96,South,178,0.0,7.0,24,0.00,,,0.00,726,WeatherTracker,2013-04-25 22:53:00,
2013-04-25 15:58:00,87.4,47.2,29.96,SW,219,5.0,7.0,25,0.00,,,0.00,715,WeatherTracker,2013-04-25 22:58:00,
2013-04-25 16:03:00,87.5,46.2,29.96,South,189,0.0,7.0,24,0.00,,,0.00,703,WeatherTracker,2013-04-25 23:03:00,
2013-04-25 16:08:00,87.2,49.1,29.96,ESE,117,0.0,7.0,27,0.00,,,0.00,682,WeatherTracker,2013-04-25 23:08:00,
2013-04-25 16:13:00,87.3,50.2,29.96,ENE,71,3.0,8.0,28,0.00,,,0.00,670,WeatherTracker,2013-04-25 23:13:00,
2013-04-25 16:18:00,87.3,48.2,29.96,SSW,207,5.0,13.0,26,0.00,,,0.00,657,WeatherTracker,2013-04-25 23:18:00,
2013-04-25 16:23:00,87.1,47.0,29.96,SSW,211,3.0,13.0,25,0.00,,,0.00,643,WeatherTracker,2013-04-25 23:23:00,
2013-04-25 16:28:00,86.9,47.8,29.96,SSW,201,3.0,13.0,26,0.00,,,0.00,629,WeatherTracker,2013-04-25 23:28:00,
2013-04-25 16:33:00,86.4,51.3,29.96,SSE,162,6.0,9.0,30,0.00,,,0.00,622,WeatherTracker,2013-04-25 23:33:00,
2013-04-25 16:38:00,86.0,51.8,29.95,ESE,105,8.0,13.0,31,0.00,,,0.00,501,WeatherTracker,2013-04-25 23:38:00,
2013-04-25 16:43:00,85.6,50.6,29.96,South,171,5.0,14.0,30,0.00,,,0.00,598,WeatherTracker,2013-04-25 23:43:00,
2013-04-25 16:48:00,85.2,52.0,29.96,SE,136,6.0,14.0,32,0.00,,,0.00,591,WeatherTracker,2013-04-25 23:48:00,
2013-04-25 16:54:00,84.8,51.6,29.96,SSE,160,6.0,13.0,32,0.00,,,0.00,561,WeatherTracker,2013-04-25 23:54:00,
2013-04-25 16:59:00,84.2,52.8,29.96,SE,146,5.0,15.0,34,0.00,,,0.00,533,WeatherTracker,2013-04-25 23:59:00,
2013-04-25 17:04:00,84.4,52.9,29.96,SE,146,8.0,15.0,34,0.00,,,0.00,513,WeatherTracker,2013-04-26 00:04:00,
2013-04-25 17:09:00,84.3,52.8,29.96,SE,143,6.0,14.0,34,0.00,,,0.00,496,WeatherTracker,2013-04-26 00:09:00,
2013-04-25 17:14:00,84.0,53.4,29.96,SSE,165,2.0,13.0,35,0.00,,,0.00,482,WeatherTracker,2013-04-26 00:14:00,
2013-04-25 17:19:00,83.7,53.1,29.97,South,185,5.0,14.0,35,0.00,,,0.00,466,WeatherTracker,2013-04-26 00:19:00,
2013-04-25 17:24:00,83.2,53.4,29.96,SE,142,0.0,14.0,36,0.00,,,0.00,446,WeatherTracker,2013-04-26 00:24:00,
2013-04-25 17:29:00,83.2,52.7,29.97,SSE,159,4.0,11.0,35,0.00,,,0.00,429,WeatherTracker,2013-04-26 00:29:00,
2013-04-25 17:34:00,83.0,53.3,29.96,SE,139,7.0,12.0,36,0.00,,,0.00,413,WeatherTracker,2013-04-26 00:34:00,
2013-04-25 17:39:00,82.9,53.2,29.97,South,186,4.0,12.0,36,0.00,,,0.00,396,WeatherTracker,2013-04-26 00:39:00,
2013-04-25 17:44:00,82.9,53.9,29.97,SSE,167,0.0,13.0,37,0.00,,,0.00,378,WeatherTracker,2013-04-26 00:44:00,
2013-04-25 17:49:00,82.8,53.8,29.97,SE,126,7.0,15.0,37,0.00,,,0.00,364,WeatherTracker,2013-04-26 00:49:00,
2013-04-25 17:54:00,82.7,53.0,29.97,SE,143,5.0,15.0,36,0.00,,,0.00,343,WeatherTracker,2013-04-26 00:54:00,
2013-04-25 17:59:00,82.6,53.7,29.97,SSE,150,8.0,13.0,37,0.00,,,0.00,325,WeatherTracker,2013-04-26 00:59:00,
2013-04-25 18:04:00,82.4,52.7,29.97,SSE,148,6.0,13.0,36,0.00,,,0.00,306,WeatherTracker,2013-04-26 01:04:00,
2013-04-25 18:10:00,82.5,53.6,29.97,SSE,166,12.0,12.0,37,0.00,,,0.00,285,WeatherTracker,2013-04-26 01:10:00,
2013-04-25 18:15:00,82.5,52.8,29.97,South,180,4.0,13.0,36,0.00,,,0.00,267,WeatherTracker,2013-04-26 01:15:00,
2013-04-25 18:20:00,82.2,52.6,29.97,SE,133,5.0,13.0,36,0.00,,,0.00,248,WeatherTracker,2013-04-26 01:20:00,
2013-04-25 18:25:00,81.9,53.0,29.97,South,180,0.0,10.0,37,0.00,,,0.00,230,WeatherTracker,2013-04-26 01:25:00,
2013-04-25 18:30:00,81.5,51.9,29.96,South,178,4.0,11.0,36,0.00,,,0.00,211,WeatherTracker,2013-04-26 01:30:00,
2013-04-25 18:35:00,81.2,52.4,29.96,SSW,192,4.0,11.0,37,0.00,,,0.00,195,WeatherTracker,2013-04-26 01:35:00,
2013-04-25 18:40:00,80.7,52.0,29.96,SW,215,7.0,9.0,37,0.00,,,0.00,176,WeatherTracker,2013-04-26 01:40:00,
2013-04-25 18:45:00,80.4,51.7,29.96,South,190,5.0,13.0,37,0.00,,,0.00,156,WeatherTracker,2013-04-26 01:45:00,
2013-04-25 18:50:00,79.7,51.1,29.96,SW,220,2.0,13.0,37,0.00,,,0.00,137,WeatherTracker,2013-04-26 01:50:00,
2013-04-25 18:55:00,79.0,51.2,29.96,SW,231,5.0,8.0,38,0.00,,,0.00,102,WeatherTracker,2013-04-26 01:55:00,
2013-04-25 19:00:00,78.2,51.2,29.97,South,190,1.0,8.0,39,0.00,,,0.00,83,WeatherTracker,2013-04-26 02:00:00,
2013-04-25 19:05:00,77.5,51.3,29.97,SW,220,0.0,8.0,40,0.00,,,0.00,44,WeatherTracker,2013-04-26 02:05:00,
2013-04-25 19:10:00,76.7,50.5,29.97,SSW,206,0.0,8.0,40,0.00,,,0.00,33,WeatherTracker,2013-04-26 02:10:00,
2013-04-25 19:15:00,76.1,50.7,29.97,South,187,2.0,8.0,41,0.00,,,0.00,32,WeatherTracker,2013-04-26 02:15:00,
2013-04-25 19:20:00,75.4,50.0,29.97,South,187,1.0,7.0,41,0.00,,,0.00,26,WeatherTracker,2013-04-26 02:20:00,
2013-04-25 19:25:00,74.9,50.2,29.97,SSE,158,6.0,7.0,42,0.00,,,0.00,25,WeatherTracker,2013-04-26 02:25:00,
2013-04-25 19:30:00,74.5,50.5,29.97,SSE,161,6.0,8.0,43,0.00,,,0.00,19,WeatherTracker,2013-04-26 02:30:00,
2013-04-25 19:35:00,73.9,51.8,29.98,SSE,163,0.0,8.0,46,0.00,,,0.00,16,WeatherTracker,2013-04-26 02:35:00,
2013-04-25 19:40:00,73.5,52.0,29.98,SE,144,6.0,8.0,47,0.00,,,0.00,11,WeatherTracker,2013-04-26 02:40:00,
2013-04-25 19:45:00,72.9,52.0,29.98,ESE,120,5.0,8.0,48,0.00,,,0.00,7,WeatherTracker,2013-04-26 02:45:00,
2013-04-25 19:51:00,72.3,52.1,29.98,SE,136,5.0,9.0,49,0.00,,,0.00,5,WeatherTracker,2013-04-26 02:51:00,
2013-04-25 19:56:00,71.8,51.6,29.98,SE,136,0.0,9.0,49,0.00,,,0.00,0,WeatherTracker,2013-04-26 02:56:00,
2013-04-25 20:01:00,71.4,51.2,29.99,SE,136,4.0,8.0,49,0.00,,,0.00,0,WeatherTracker,2013-04-26 03:01:00,
2013-04-25 20:06:00,70.8,51.2,29.98,SE,126,1.0,8.0,50,0.00,,,0.00,0,WeatherTracker,2013-04-26 03:06:00,
2013-04-25 20:11:00,70.4,50.9,29.99,SE,131,0.0,8.0,50,0.00,,,0.00,0,WeatherTracker,2013-04-26 03:11:00,
2013-04-25 20:16:00,69.8,50.8,29.99,SE,143,0.0,8.0,51,0.00,,,0.00,0,WeatherTracker,2013-04-26 03:16:00,
2013-04-25 20:21:00,69.2,50.3,29.99,SSE,167,7.0,7.0,51,0.00,,,0.00,0,WeatherTracker,2013-04-26 03:21:00,
2013-04-25 20:26:00,68.4,50.1,29.99,SSE,159,5.0,9.0,52,0.00,,,0.00,0,WeatherTracker,2013-04-26 03:26:00,
2013-04-25 20:31:00,67.9,49.6,30.00,SSE,161,0.0,9.0,52,0.00,,,0.00,0,WeatherTracker,2013-04-26 03:31:00,
2013-04-25 20:36:00,67.5,49.8,30.00,SSE,157,0.0,8.0,53,0.00,,,0.00,0,WeatherTracker,2013-04-26 03:36:00,
2013-04-25 20:41:00,67.1,49.4,30.00,SE,138,0.0,5.0,53,0.00,,,0.00,0,WeatherTracker,2013-04-26 03:41:00,
2013-04-25 20:46:00,66.8,49.6,30.00,SE,134,0.0,5.0,54,0.00,,,0.00,0,WeatherTracker,2013-04-26 03:46:00,
2013-04-25 20:51:00,66.4,49.7,30.00,East,98,0.0,1.0,55,0.00,,,0.00,0,WeatherTracker,2013-04-26 03:51:00,
2013-04-25 20:56:00,65.9,49.3,30.00,ESE,103,0.0,6.0,55,0.00,,,0.00,0,WeatherTracker,2013-04-26 03:56:00,
2013-04-25 21:01:00,65.4,49.3,30.01,East,98,0.0,6.0,56,0.00,,,0.00,0,WeatherTracker,2013-04-26 04:01:00,
2013-04-25 21:06:00,64.7,49.1,30.01,ESE,107,0.0,7.0,57,0.00,,,0.00,0,WeatherTracker,2013-04-26 04:06:00,
2013-04-25 21:11:00,64.1,49.0,30.01,ESE,107,0.0,7.0,58,0.00,,,0.00,0,WeatherTracker,2013-04-26 04:11:00,
2013-04-25 21:16:00,63.6,48.5,30.02,ESE,109,0.0,6.0,58,0.00,,,0.00,0,WeatherTracker,2013-04-26 04:16:00,
2013-04-25 21:22:00,63.1,48.5,30.02,ESE,109,0.0,0.0,59,0.00,,,0.00,0,WeatherTracker,2013-04-26 04:22:00,
2013-04-25 21:27:00,62.7,48.2,30.02,SE,124,1.0,7.0,59,0.00,,,0.00,0,WeatherTracker,2013-04-26 04:27:00,
2013-04-25 21:32:00,62.4,47.9,30.02,SE,130,6.0,7.0,59,0.00,,,0.00,0,WeatherTracker,2013-04-26 04:32:00,
2013-04-25 21:37:00,62.2,47.7,30.02,ESE,121,4.0,6.0,59,0.00,,,0.00,0,WeatherTracker,2013-04-26 04:37:00,
2013-04-25 21:42:00,61.9,47.9,30.03,ESE,123,5.0,6.0,60,0.00,,,0.00,0,WeatherTracker,2013-04-26 04:42:00,
2013-04-25 21:47:00,61.7,48.1,30.03,ESE,123,0.0,6.0,61,0.00,,,0.00,0,WeatherTracker,2013-04-26 04:47:00,
2013-04-25 21:52:00,61.5,47.5,30.03,ESE,123,0.0,6.0,60,0.00,,,0.00,0,WeatherTracker,2013-04-26 04:52:00,
2013-04-25 21:57:00,61.3,47.7,30.03,ESE,123,0.0,0.0,61,0.00,,,0.00,0,WeatherTracker,2013-04-26 04:57:00,
2013-04-25 22:02:00,61.1,47.5,30.03,ESE,120,0.0,0.0,61,0.00,,,0.00,0,WeatherTracker,2013-04-26 05:02:00,
2013-04-25 22:07:00,60.7,47.6,30.03,ESE,119,0.0,0.0,62,0.00,,,0.00,0,WeatherTracker,2013-04-26 05:07:00,
2013-04-25 22:12:00,60.4,47.3,30.03,ESE,119,0.0,1.0,62,0.00,,,0.00,0,WeatherTracker,2013-04-26 05:12:00,
2013-04-25 22:17:00,60.0,47.4,30.04,ESE,111,5.0,5.0,63,0.00,,,0.00,0,WeatherTracker,2013-04-26 05:17:00,
2013-04-25 22:22:00,59.6,47.0,30.04,East,91,4.0,6.0,63,0.00,,,0.00,0,WeatherTracker,2013-04-26 05:22:00,
2013-04-25 22:27:00,59.1,46.9,30.04,East,86,2.0,7.0,64,0.00,,,0.00,0,WeatherTracker,2013-04-26 05:27:00,
2013-04-25 22:32:00,58.8,46.6,30.04,East,80,3.0,7.0,64,0.00,,,0.00,0,WeatherTracker,2013-04-26 05:32:00,
2013-04-25 22:37:00,58.5,46.8,30.04,East,100,1.0,5.0,65,0.00,,,0.00,0,WeatherTracker,2013-04-26 05:37:00,
2013-04-25 22:42:00,58.2,46.5,30.04,East,98,4.0,7.0,65,0.00,,,0.00,0,WeatherTracker,2013-04-26 05:42:00,
2013-04-25 22:47:00,58.1,46.4,30.04,East,96,0.0,7.0,65,0.00,,,0.00,0,WeatherTracker,2013-04-26 05:47:00,
2013-04-25 22:52:00,58.1,46.8,30.04,East,87,3.0,7.0,66,0.00,,,0.00,0,WeatherTracker,2013-04-26 05:52:00,
2013-04-25 22:57:00,58.0,46.7,30.04,East,92,2.0,6.0,66,0.00,,,0.00,0,WeatherTracker,2013-04-26 05:57:00,
2013-04-25 23:02:00,57.6,46.3,30.04,ESE,102,0.0,6.0,66,0.00,,,0.00,0,WeatherTracker,2013-04-26 06:02:00,
2013-04-25 23:08:00,57.3,46.4,30.04,East,88,6.0,7.0,67,0.00,,,0.00,0,WeatherTracker,2013-04-26 06:08:00,
2013-04-25 23:13:00,57.0,46.5,30.05,East,96,4.0,8.0,68,0.00,,,0.00,0,WeatherTracker,2013-04-26 06:13:00,
2013-04-25 23:18:00,56.8,46.4,30.05,East,101,5.0,8.0,68,0.00,,,0.00,0,WeatherTracker,2013-04-26 06:18:00,
2013-04-25 23:23:00,56.6,46.2,30.05,East,79,4.0,8.0,68,0.00,,,0.00,0,WeatherTracker,2013-04-26 06:23:00,
2013-04-25 23:28:00,56.4,46.0,30.05,East,94,5.0,8.0,68,0.00,,,0.00,0,WeatherTracker,2013-04-26 06:28:00,
2013-04-25 23:33:00,56.2,46.2,30.05,East,83,4.0,8.0,69,0.00,,,0.00,0,WeatherTracker,2013-04-26 06:33:00,
2013-04-25 23:38:00,56.0,46.0,30.05,ESE,103,5.0,8.0,69,0.00,,,0.00,0,WeatherTracker,2013-04-26 06:38:00,
2013-04-25 23:43:00,55.8,46.2,30.05,East,101,4.0,8.0,70,0.00,,,0.00,0,WeatherTracker,2013-04-26 06:43:00,
2013-04-25 23:48:00,55.6,46.0,30.05,East,94,5.0,8.0,70,0.00,,,0.00,0,WeatherTracker,2013-04-26 06:48:00,
2013-04-25 23:53:00,55.3,46.1,30.05,East,94,7.0,9.0,71,0.00,,,0.00,0,WeatherTracker,2013-04-26 06:53:00,
2013-04-25 23:58:00,55.1,45.9,30.05,East,82,3.0,9.0,71,0.00,,,0.00,0,WeatherTracker,2013-04-26 06:58:00,